Regional Weather Roundup
Issued by NWS Cleveland, OH

Home | Current Version | Previous Version | Text Only | Print | Product List | Glossary Off
Versions: 1 2 3 4 5 6 7 8 9 10 11 12 13 14 15 16 17 18 19 20 21 22 23 24 25 26 27 28 29 30 31 32 33 34 35 36 37 38 39 40 41 42 43 44 45 46 47 48 49 50

000
ASUS41 KCLE 280600
RWRCLE
OHIO REGIONAL WEATHER ROUNDUP
NATIONAL WEATHER SERVICE WILMINGTON, OH
200 AM EDT THU AUG 28 2014

NOTE: "FAIR" INDICATES FEW OR NO CLOUDS BELOW 12,000 FEET WITH NO
SIGNIFICANT WEATHER AND/OR OBSTRUCTIONS TO VISIBILITY.

OHZ001>008-015>018-024>027-034-035-043-044-280700-
   NORTHWEST OHIO

CITY           SKY/WX    TMP DP  RH WIND       PRES   REMARKS
DEFIANCE       FAIR      63  59  87 CALM      30.11S
FINDLAY        MOCLDY    67  63  87 N3        30.09S
TOLEDO EXPRESS FAIR      62  58  86 CALM      30.10S
TOLEDO METCALF FAIR      67  61  81 NE5       30.11S
LIMA           FAIR      65  62  90 CALM      30.10S FOG
$$

OHZ009>014-019>023-028>033-038-089-280700-
   NORTHEAST OHIO

CITY           SKY/WX    TMP DP  RH WIND       PRES   REMARKS
CLE-HOPKINS    FAIR      66  57  72 NE5       30.11F
CLE-LAKEFRONT  FAIR      67  56  67 E6        30.09S
CUY CO. ARPT   NOT AVBL
LORAIN-ELYRIA  FAIR      65  58  78 NE3       30.11S
ASHTABULA      FAIR      56  53  90 CALM      30.10F
AKRON-CANTON   MOCLDY    62  57  83 NE6       30.10S
WOOSTER        NOT AVBL
MANSFIELD      FAIR      62  61  96 CALM      30.11S
YOUNGSTOWN     MOCLDY    60  54  80 N6        30.09F
$$

OHZ042-051>053-060>062-070>072-077>081-280700-
  SOUTHWEST OHIO

CITY           SKY/WX    TMP DP  RH WIND       PRES   REMARKS
CINC-COVINGTON FAIR      75  68  78 N6        30.06F
CINC-LUNKEN    FAIR      72  70  93 CALM      30.06S
HAMILTON       FAIR      72  69  90 N5        30.07F
DAYTON         NOT AVBL
WRIGHT-PAT AFB FAIR      69  64  84 NE6       30.09R
DAYTON GENERAL FAIR      70  66  87 NE5       30.08R
WILMINGTON     FAIR      68  66  93 NE6       30.07F FOG
$$

OHZ036-037-039>041-045>050-054>059-063>069-073>076-082>088-280700-
  CENTRAL AND SOUTHEAST OHIO

CITY           SKY/WX    TMP DP  RH WIND       PRES   REMARKS
COLUMBUS       FAIR      69  61  75 CALM      30.08S
OSU AIRPORT    FAIR      67  61  81 NE5       30.09S
BOLTON FIELD   NOT AVBL
RICKENBACK AFB NOT AVBL
NEWARK         FAIR      66  61  84 CALM      30.08S
MARION         FAIR      63  61  93 CALM      30.10S FOG
LANCASTER      FAIR      66  62  87 CALM      30.08S
ZANESVILLE     FAIR      65  61  87 N3        30.08S
NEW PHILLY     FAIR      63  59  87 CALM      30.09S
$$


USA.gov is the U.S. government's official web portal to all federal, state and local government web resources and services.